Location: Betap?di
(16.4398°N, 80.5373°E)
Time: 04:32:57
(UTC+00:00)

Daily predictions for brighter satellites

Satellite Brightness Start Highest point End
(mag) Time Altitude Azimuth Time Altitude Azimuth Time Altitude Azimuth
Hubble Space Telescope 3.2 00:00:41 10° SSW 00:03:48 21° SSE 00:06:57 10° E
Cosmos 1825 Rocket 3.5 00:00:27 10° N 00:04:48 86° E 00:09:11 10° S
Okean O Rocket 1.7 00:00:39 10° NNE 00:05:03 78° E 00:09:26 10° S
Helios 1A Rocket 3.7 00:03:13 10° NNE 00:07:17 56° E 00:11:21 10° S
Cosmos 1606 Rocket 4.4 00:04:28 10° SW 00:08:18 28° W 00:12:06 10° NNW
Cosmos 1726 Rocket 4.1 00:04:46 10° SSW 00:08:51 36° W 00:12:57 10° NNW
OAO 3 Copernicus 4.4 00:06:18 25° WNW 00:09:13 64° SW 00:14:13 10° SE
Cosmos 1295 Rocket 4.4 00:03:16 10° NNW 00:09:15 59° W 00:15:13 10° S
FENGYUN 3A 3.8 00:05:18 10° N 00:10:28 48° WNW 00:15:39 10° SSW
COSMO-SKYMED 1 2.6 00:07:49 10° SSE 00:12:08 84° ENE 00:16:29 10° N
STARLINK-46 1.8 00:13:22 43° NNW 00:13:52 74° NE 00:15:53 10° SE
Cosmos 2237 4.2 00:09:00 10° SSW 00:14:43 85° WNW 00:20:26 10° NNE
Cosmos 2228 4.2 00:17:51 10° SW 00:21:10 21° W 00:24:31 10° NNW
CZ-4B R/B 3.1 00:17:49 10° N 00:23:12 69° WNW 00:28:29 10° SSW
Delta 128 3.5 00:21:38 17° WNW 00:25:07 89° S 00:29:53 10° ESE
Cosmos 44 Rocket 3.8 00:21:49 13° NW 00:25:42 38° WSW 00:30:12 10° S
GPS 2-15 Rocket1 3.3 00:22:48 16° W 00:26:25 58° N 00:30:59 10° ENE
Cosmos 1300 3.4 00:22:55 10° S 00:26:39 58° E 00:30:23 10° NNE
Cosmos 482 Debris 3.7 00:25:12 10° SW 00:28:03 34° NW 00:30:04 10° NNE
Milstar 3 Cent rocket 4.2 00:14:01 13° W 00:29:19 50° NNW 00:37:14 10° ENE
RESURS DK-1 3.4 00:26:38 10° SW 00:30:00 24° WNW 00:33:22 10° NNW
Cosmos 1174 4.4 00:26:40 10° SSW 00:31:59 78° ESE 00:36:10 10° NNE
ATLAS 2A CENTAUR R/B 2.9 00:36:55 10° WNW 00:39:42 29° N 00:46:59 10° ENE
H-2A R/B 2.7 00:37:25 10° N 00:41:17 86° WNW 00:45:05 10° SSW
Cosmos 1328 3.9 00:40:09 10° NNW 00:44:00 53° W 00:47:49 10° S
Timation 1 Rocket 4.5 00:44:01 10° NNW 00:50:02 85° ENE 00:56:02 10° SSE
USA 116 4.3 00:45:06 10° S 00:50:07 62° WSW 00:54:40 10° NNW
NOSS 3-2 (A) 4.3 00:42:09 10° NNW 00:50:22 67° WSW 00:58:54 10° SSE
CENTAUR R/B 3.8 00:44:03 10° NNW 00:52:37 66° ENE 01:01:11 10° SE
